TimeCDT,TemperatureF,Dew PointF,Humidity,Sea Level PressureIn,VisibilityMPH,Wind Direction,Wind SpeedMPH,Gust SpeedMPH,PrecipitationIn,Events,Conditions,WindDirDegrees,DateUTC
12:53 AM,73.9,66.0,76,29.61,10.0,SW,8.1,18.4,N/A,,Clear,220,2013-05-28 05:53:00
1:53 AM,73.0,66.0,79,29.60,10.0,South,13.8,21.9,N/A,,Clear,190,2013-05-28 06:53:00
2:53 AM,71.1,66.0,84,29.57,10.0,South,11.5,-,N/A,,Clear,180,2013-05-28 07:53:00
3:53 AM,70.0,66.0,87,29.58,10.0,South,5.8,-,N/A,,Clear,180,2013-05-28 08:53:00
4:53 AM,70.0,66.0,87,29.60,10.0,South,5.8,-,N/A,,Clear,180,2013-05-28 09:53:00
5:53 AM,69.1,64.9,87,29.62,10.0,NNE,3.5,-,N/A,,Clear,30,2013-05-28 10:53:00
6:53 AM,71.1,66.0,84,29.63,10.0,NE,4.6,-,N/A,,Mostly Cloudy,50,2013-05-28 11:53:00
7:53 AM,72.0,66.9,84,29.64,10.0,East,5.8,-,N/A,,Overcast,100,2013-05-28 12:53:00
8:31 AM,73.4,68.0,83,29.68,10.0,SE,5.8,-,N/A,,Mostly Cloudy,140,2013-05-28 13:31:00
8:53 AM,75.9,68.0,76,29.64,10.0,SSE,8.1,-,N/A,,Mostly Cloudy,150,2013-05-28 13:53:00
9:53 AM,77.0,68.0,74,29.62,10.0,South,8.1,17.3,N/A,,Overcast,180,2013-05-28 14:53:00
10:53 AM,78.1,68.0,71,29.61,10.0,South,16.1,20.7,N/A,,Overcast,170,2013-05-28 15:53:00
11:48 AM,80.6,69.8,70,29.64,10.0,South,17.3,-,N/A,,Scattered Clouds,170,2013-05-28 16:48:00
11:53 AM,81.0,69.1,67,29.60,10.0,South,12.7,24.2,N/A,,Scattered Clouds,180,2013-05-28 16:53:00
12:53 PM,82.9,68.0,60,29.61,10.0,SSW,15.0,-,N/A,,Mostly Cloudy,210,2013-05-28 17:53:00
1:53 PM,88.0,66.9,49,29.60,10.0,South,13.8,25.3,N/A,,Scattered Clouds,190,2013-05-28 18:53:00
2:53 PM,88.0,68.0,51,29.59,10.0,SSE,15.0,18.4,N/A,,Scattered Clouds,160,2013-05-28 19:53:00
3:53 PM,91.9,66.9,44,29.56,10.0,SSE,17.3,26.5,N/A,,Partly Cloudy,160,2013-05-28 20:53:00
4:53 PM,86.0,71.1,61,29.53,10.0,SSE,31.1,38.0,N/A,,Scattered Clouds,160,2013-05-28 21:53:00
5:53 PM,87.1,71.1,59,29.51,10.0,SSE,25.3,35.7,N/A,,Partly Cloudy,150,2013-05-28 22:53:00
6:31 PM,82.4,69.8,66,29.53,10.0,SSE,27.6,36.8,N/A,Thunderstorm,Thunderstorm,150,2013-05-28 23:31:00
6:53 PM,82.0,68.0,62,29.56,10.0,SSE,24.2,32.2,N/A,Thunderstorm,Thunderstorm,160,2013-05-28 23:53:00
7:53 PM,75.9,66.9,74,29.65,5.0,South,20.7,31.1,0.05,Rain-Thunderstorm,Heavy Thunderstorms and Rain,170,2013-05-29 00:53:00
8:53 PM,75.0,66.9,76,29.65,10.0,SSE,17.3,25.3,0.10,Thunderstorm,Thunderstorm,150,2013-05-29 01:53:00
9:03 PM,75.2,66.2,73,29.69,10.0,SSE,19.6,24.2,N/A,,Clear,160,2013-05-29 02:03:00
9:53 PM,73.9,66.0,76,29.64,10.0,SSE,19.6,26.5,N/A,,Clear,160,2013-05-29 02:53:00
10:53 PM,75.0,64.9,71,29.58,10.0,South,24.2,35.7,N/A,,Clear,170,2013-05-29 03:53:00
11:53 PM,73.9,66.0,76,29.61,10.0,South,18.4,32.2,N/A,,Clear,180,2013-05-29 04:53:00